,,,PA_Meas_PMT16A,,PR_Meas_QMR101_102,,RH_Meas_QMH101,,SR_Meas_QMS101,,TA_Meas_QMH101,,GenWind,,GenWind,
date,time,status,PA,status,PR,status,RH,status,SR,status,TA,status,DirAvg,status,SpdAvg,
2009-04-17, 00:00:04,VALID,1003.18,VALID,0,VALID,93.4919,VALID,0.100563,VALID,24.6574,VALID,349,VALID,0,
2009-04-17, 00:01:04,VALID,1003.19,VALID,0,VALID,93.469,VALID,0,VALID,24.6166,VALID,349,VALID,0,
2009-04-17, 00:02:04,VALID,1003.18,VALID,0,VALID,93.5301,VALID,0,VALID,24.5972,VALID,349,VALID,0,
2009-04-17, 00:03:04,VALID,1003.18,VALID,0,VALID,93.5987,VALID,0,VALID,24.6574,VALID,349,VALID,0,
2009-04-17, 00:04:04,VALID,1003.15,VALID,0,VALID,93.6064,VALID,0,VALID,24.6574,VALID,349,VALID,0.454688,
2009-04-17, 00:05:04,VALID,1003.16,VALID,0,VALID,93.6216,VALID,0,VALID,24.6574,VALID,349,VALID,0.513281,
2009-04-17, 00:06:04,VALID,1003.16,VALID,0,VALID,93.6369,VALID,0,VALID,24.6574,VALID,332,VALID,0.578125,
2009-04-17, 00:07:04,VALID,1003.16,VALID,0,VALID,93.6292,VALID,0,VALID,24.6574,VALID,353,VALID,0.463281,
2009-04-17, 00:08:04,VALID,1003.09,VALID,0,VALID,93.6216,VALID,0,VALID,24.6556,VALID,353,VALID,0.529297,
2009-04-17, 00:09:04,VALID,1003.11,VALID,0,VALID,93.6598,VALID,0,VALID,24.6964,VALID,347,VALID,0.505078,
2009-04-17, 00:10:04,VALID,1003.08,VALID,0,VALID,93.6216,VALID,0,VALID,24.6964,VALID,343,VALID,0.508984,
2009-04-17, 00:11:04,VALID,1003.08,VALID,0,VALID,93.5682,VALID,0,VALID,24.6964,VALID,343,VALID,0.369922,
2009-04-17, 00:12:04,VALID,1003.07,VALID,0,VALID,93.5301,VALID,0,VALID,24.6769,VALID,343,VALID,0.373437,
2009-04-17, 00:13:04,VALID,1003.05,VALID,0,VALID,93.4996,VALID,0,VALID,24.675,VALID,343,VALID,0.275391,
2009-04-17, 00:14:04,VALID,1003.05,VALID,0,VALID,93.4919,VALID,0.100563,VALID,24.6556,VALID,343,VALID,0,
2009-04-17, 00:15:04,VALID,1003.03,VALID,0,VALID,93.4767,VALID,0,VALID,24.6769,VALID,343,VALID,0,
2009-04-17, 00:16:04,VALID,1003.04,VALID,0,VALID,93.4767,VALID,0,VALID,24.6556,VALID,343,VALID,0,
2009-04-17, 00:17:04,VALID,1003.04,VALID,0,VALID,93.4767,VALID,0,VALID,24.6556,VALID,343,VALID,0,
2009-04-17, 00:18:04,VALID,1003.02,VALID,0,VALID,93.4919,VALID,0,VALID,24.6556,VALID,343,VALID,0,
2009-04-17, 00:19:04,VALID,1002.99,VALID,0,VALID,93.5072,VALID,0,VALID,24.6574,VALID,343,VALID,0.497656,
2009-04-17, 00:20:04,VALID,1002.96,VALID,0,VALID,93.5148,VALID,0.100563,VALID,24.6574,VALID,343,VALID,0.398438,
2009-04-17, 00:21:04,VALID,1002.88,VALID,0,VALID,93.5377,VALID,0,VALID,24.638,VALID,343,VALID,0.307813,
2009-04-17, 00:22:04,VALID,1002.9,VALID,0,VALID,93.553,VALID,0,VALID,24.638,VALID,343,VALID,0.413672,
2009-04-17, 00:23:04,VALID,1002.84,VALID,0,VALID,93.5682,VALID,0,VALID,24.6185,VALID,343,VALID,0.5,
2009-04-17, 00:24:04,VALID,1002.8,VALID,0,VALID,93.5758,VALID,0,VALID,24.6166,VALID,343,VALID,0.533203,
2009-04-17, 00:25:04,VALID,1002.81,VALID,0,VALID,93.5987,VALID,0,VALID,24.6166,VALID,343,VALID,0.487891,
2009-04-17, 00:26:04,VALID,1002.82,VALID,0,VALID,93.614,VALID,0,VALID,24.6166,VALID,343,VALID,0.435547,
2009-04-17, 00:27:04,VALID,1002.82,VALID,0,VALID,93.6369,VALID,0,VALID,24.6185,VALID,346,VALID,0.40625,
2009-04-17, 00:28:04,VALID,1002.8,VALID,0,VALID,93.6598,VALID,0,VALID,24.638,VALID,346,VALID,0.0652344,
2009-04-17, 00:29:04,VALID,1002.77,VALID,0,VALID,93.7055,VALID,0,VALID,24.638,VALID,346,VALID,0.00585938,
2009-04-17, 00:30:04,VALID,1002.74,VALID,0,VALID,93.7513,VALID,0,VALID,24.6537,VALID,346,VALID,0.00117188,
2009-04-17, 00:31:04,VALID,1002.74,VALID,0,VALID,93.7055,VALID,0,VALID,24.6964,VALID,346,VALID,0.305859,
2009-04-17, 00:32:04,VALID,1002.72,VALID,0,VALID,93.6674,VALID,0,VALID,24.714,VALID,346,VALID,0.163281,
2009-04-17, 00:33:04,VALID,1002.69,VALID,0,VALID,93.614,VALID,0.100563,VALID,24.7548,VALID,346,VALID,0,
2009-04-17, 00:34:04,VALID,1002.67,VALID,0,VALID,93.5911,VALID,0,VALID,24.751,VALID,346,VALID,0.205859,
2009-04-17, 00:35:04,VALID,1002.63,VALID,0,VALID,93.5301,VALID,0,VALID,24.7919,VALID,346,VALID,0.449609,
2009-04-17, 00:36:04,VALID,1002.64,VALID,0,VALID,93.4614,VALID,0,VALID,24.7919,VALID,346,VALID,0.231641,
2009-04-17, 00:37:04,VALID,1002.63,VALID,0,VALID,93.3851,VALID,0,VALID,24.893,VALID,352,VALID,0.458594,
2009-04-17, 00:38:04,VALID,1002.62,VALID,0,VALID,93.2783,VALID,0,VALID,24.8911,VALID,345,VALID,0.448047,
2009-04-17, 00:39:04,VALID,1002.6,VALID,0,VALID,93.1563,VALID,0,VALID,24.8697,VALID,345,VALID,0,
2009-04-17, 00:40:04,VALID,1002.6,VALID,0,VALID,93.0876,VALID,0,VALID,24.9106,VALID,345,VALID,0,
2009-04-17, 00:41:04,VALID,1002.59,VALID,0,VALID,92.9655,VALID,0,VALID,24.9106,VALID,345,VALID,0.205859,
2009-04-17, 00:42:04,VALID,1002.57,VALID,0,VALID,92.8511,VALID,0,VALID,24.9087,VALID,345,VALID,0.399219,
2009-04-17, 00:43:04,VALID,1002.56,VALID,0,VALID,92.7367,VALID,0,VALID,24.93,VALID,347,VALID,0.554688,
2009-04-17, 00:44:04,VALID,1002.55,VALID,0,VALID,92.6299,VALID,0,VALID,24.93,VALID,346,VALID,0.638281,
2009-04-17, 00:45:04,VALID,1002.51,VALID,0,VALID,92.5536,VALID,0,VALID,24.9087,VALID,346,VALID,0.550391,
2009-04-17, 00:46:04,VALID,1002.5,VALID,0,VALID,92.4849,VALID,0,VALID,24.9106,VALID,345,VALID,0.642187,
2009-04-17, 00:47:04,VALID,1002.48,VALID,0,VALID,92.4544,VALID,0,VALID,24.8911,VALID,344,VALID,0.555469,
2009-04-17, 00:48:04,VALID,1002.46,VALID,0,VALID,92.4239,VALID,0,VALID,24.8716,VALID,344,VALID,0.448828,
2009-04-17, 00:49:04,VALID,1002.47,VALID,0,VALID,92.462,VALID,0,VALID,24.8327,VALID,344,VALID,0.387891,
2009-04-17, 00:50:04,VALID,1002.44,VALID,0,VALID,92.4849,VALID,0,VALID,24.8503,VALID,348,VALID,0.433984,
2009-04-17, 00:51:04,VALID,1002.4,VALID,0,VALID,92.401,VALID,0,VALID,24.8911,VALID,349,VALID,0.454297,
2009-04-17, 00:52:04,VALID,1002.38,VALID,0,VALID,92.34,VALID,0,VALID,24.9106,VALID,349,VALID,0.0589844,
2009-04-17, 00:53:04,VALID,1002.36,VALID,0,VALID,92.2484,VALID,0,VALID,24.93,VALID,349,VALID,0,
2009-04-17, 00:54:04,VALID,1002.34,VALID,0,VALID,92.1416,VALID,0,VALID,24.9282,VALID,349,VALID,0,
2009-04-17, 00:55:04,VALID,1002.34,VALID,0,VALID,92.0882,VALID,0.100563,VALID,24.9495,VALID,315,VALID,0.189844,
2009-04-17, 00:56:04,VALID,1002.32,VALID,0,VALID,91.9967,VALID,0,VALID,24.969,VALID,315,VALID,0,
2009-04-17, 00:57:04,VALID,1002.3,VALID,0,VALID,91.867,VALID,0,VALID,24.9885,VALID,353,VALID,0.434766,
2009-04-17, 00:58:04,VALID,1002.31,VALID,0,VALID,91.7831,VALID,0,VALID,25.0274,VALID,354,VALID,0.500781,
2009-04-17, 00:59:04,VALID,1002.3,VALID,0,VALID,91.6381,VALID,0,VALID,25.0255,VALID,354,VALID,0.114063,
2009-04-17, 01:00:04,VALID,1002.3,VALID,0,VALID,91.5313,VALID,0,VALID,25.0663,VALID,354,VALID,0.00859375,
2009-04-17, 01:01:04,VALID,1002.28,VALID,0,VALID,91.4092,VALID,0,VALID,25.0663,VALID,354,VALID,0.009375,
2009-04-17, 01:02:04,VALID,1002.28,VALID,0,VALID,91.3253,VALID,0,VALID,25.0663,VALID,354,VALID,0.29375,
2009-04-17, 01:03:04,VALID,1002.23,VALID,0,VALID,91.2719,VALID,0,VALID,25.0663,VALID,354,VALID,0.0117188,
2009-04-17, 01:04:04,VALID,1002.25,VALID,0,VALID,91.2033,VALID,0,VALID,25.0663,VALID,354,VALID,0.0347656,
2009-04-17, 01:05:04,VALID,1002.23,VALID,0,VALID,91.1422,VALID,0,VALID,25.0663,VALID,354,VALID,0.0324219,
2009-04-17, 01:06:04,VALID,1002.23,VALID,0,VALID,91.0583,VALID,0,VALID,25.0858,VALID,354,VALID,0.370313,
2009-04-17, 01:07:04,VALID,1002.23,VALID,0,VALID,90.9973,VALID,0,VALID,25.0644,VALID,354,VALID,0.353906,
2009-04-17, 01:08:04,VALID,1002.23,VALID,0,VALID,90.9744,VALID,0,VALID,25.0858,VALID,354,VALID,0.355469,
2009-04-17, 01:09:04,VALID,1002.22,VALID,0,VALID,90.921,VALID,0,VALID,25.0644,VALID,354,VALID,0.544531,
2009-04-17, 01:10:04,VALID,1002.22,VALID,0,VALID,90.9744,VALID,0,VALID,25.0469,VALID,349,VALID,0.434375,
2009-04-17, 01:11:04,VALID,1002.26,VALID,0,VALID,91.0431,VALID,0,VALID,25.0274,VALID,349,VALID,0.587109,
2009-04-17, 01:12:04,VALID,1002.24,VALID,0,VALID,91.0965,VALID,0,VALID,25.0079,VALID,3,VALID,0.530469,
2009-04-17, 01:13:04,VALID,1002.26,VALID,0,VALID,91.1346,VALID,0,VALID,24.9885,VALID,359,VALID,0.508594,
2009-04-17, 01:14:04,VALID,1002.25,VALID,0,VALID,91.2338,VALID,0,VALID,24.969,VALID,359,VALID,0.480859,
2009-04-17, 01:15:04,VALID,1002.25,VALID,0,VALID,91.3635,VALID,0,VALID,24.9495,VALID,357,VALID,0.56875,
2009-04-17, 01:16:04,VALID,1002.21,VALID,0,VALID,91.4398,VALID,0,VALID,24.93,VALID,351,VALID,0.533594,
2009-04-17, 01:17:04,VALID,1002.2,VALID,0,VALID,91.5084,VALID,0,VALID,24.9087,VALID,351,VALID,0.617969,
2009-04-17, 01:18:04,VALID,1002.19,VALID,0,VALID,91.6229,VALID,0,VALID,24.8892,VALID,351,VALID,0.521094,
2009-04-17, 01:19:04,VALID,1002.2,VALID,0,VALID,91.7525,VALID,0,VALID,24.9106,VALID,351,VALID,0.373047,
2009-04-17, 01:20:04,VALID,1002.17,VALID,0,VALID,91.8517,VALID,0,VALID,24.93,VALID,354,VALID,0.684766,
2009-04-17, 01:21:04,VALID,1002.13,VALID,0,VALID,91.867,VALID,0,VALID,24.93,VALID,354,VALID,0.459375,
2009-04-17, 01:22:04,VALID,1002.13,VALID,0,VALID,91.8517,VALID,0,VALID,24.969,VALID,354,VALID,0.277734,
2009-04-17, 01:23:04,VALID,1002.12,VALID,0,VALID,91.7831,VALID,0,VALID,24.9904,VALID,354,VALID,0.0105469,
2009-04-17, 01:24:04,VALID,1002.09,VALID,0,VALID,91.6763,VALID,0,VALID,24.9885,VALID,354,VALID,0,
2009-04-17, 01:25:04,VALID,1002.09,VALID,0,VALID,91.6305,VALID,0,VALID,24.9885,VALID,354,VALID,0,
2009-04-17, 01:26:04,VALID,1002.1,VALID,0,VALID,91.6305,VALID,0,VALID,24.9885,VALID,354,VALID,0.00703125,
2009-04-17, 01:27:04,VALID,1002.1,VALID,0,VALID,91.6152,VALID,0,VALID,25.0079,VALID,354,VALID,0.339453,
2009-04-17, 01:28:04,VALID,1002.09,VALID,0,VALID,91.6076,VALID,0,VALID,25.0274,VALID,354,VALID,0.0960938,
2009-04-17, 01:29:04,VALID,1002.08,VALID,0,VALID,91.5542,VALID,0,VALID,25.0274,VALID,354,VALID,0.559766,
2009-04-17, 01:30:04,VALID,1002.06,VALID,0,VALID,91.5771,VALID,0,VALID,25.0274,VALID,354,VALID,0.494531,
2009-04-17, 01:31:04,VALID,1002.06,VALID,0,VALID,91.6229,VALID,0,VALID,24.969,VALID,354,VALID,0.582031,
2009-04-17, 01:32:04,VALID,1002.06,VALID,0,VALID,91.7144,VALID,0,VALID,24.9495,VALID,354,VALID,0.380859,
2009-04-17, 01:33:04,VALID,1002.04,VALID,0,VALID,91.661,VALID,0,VALID,24.9106,VALID,354,VALID,0.239844,
2009-04-17, 01:34:04,VALID,1002.05,VALID,0,VALID,91.6991,VALID,0,VALID,24.8113,VALID,354,VALID,0.289453,
2009-04-17, 01:35:04,VALID,1002.06,VALID,0,VALID,91.7754,VALID,0,VALID,24.7724,VALID,354,VALID,0.0164062,
2009-04-17, 01:36:04,VALID,1002.08,VALID,0,VALID,91.9204,VALID,0,VALID,24.7743,VALID,354,VALID,0.318359,
2009-04-17, 01:37:04,VALID,1002.11,VALID,0,VALID,92.0577,VALID,0,VALID,24.7353,VALID,354,VALID,0.298438,
2009-04-17, 01:38:04,VALID,1002.1,VALID,0,VALID,92.2561,VALID,0,VALID,24.7567,VALID,354,VALID,0.307813,
2009-04-17, 01:39:04,VALID,1002.12,VALID,0,VALID,92.3247,VALID,0,VALID,24.7159,VALID,354,VALID,0.45,
2009-04-17, 01:40:04,VALID,1002.11,VALID,0,VALID,92.462,VALID,0,VALID,24.6964,VALID,354,VALID,0.491406,
2009-04-17, 01:41:04,VALID,1002.12,VALID,0,VALID,92.5841,VALID,0,VALID,24.7159,VALID,354,VALID,0.510156,
2009-04-17, 01:42:04,VALID,1002.11,VALID,0,VALID,92.6451,VALID,0,VALID,24.6964,VALID,354,VALID,0.618359,
2009-04-17, 01:43:04,VALID,1002.1,VALID,0,VALID,92.7443,VALID,0,VALID,24.6945,VALID,347,VALID,0.871875,
2009-04-17, 01:44:04,VALID,1002.07,VALID,0,VALID,92.7748,VALID,0,VALID,24.7529,VALID,351,VALID,0.871875,
2009-04-17, 01:45:04,VALID,1002.04,VALID,0,VALID,92.6528,VALID,0,VALID,24.8327,VALID,355,VALID,0.94375,
2009-04-17, 01:46:04,VALID,1002.05,VALID,0,VALID,92.4086,VALID,0,VALID,24.9087,VALID,350,VALID,0.707031,
2009-04-17, 01:47:04,VALID,1002.03,VALID,0,VALID,92.0348,VALID,0,VALID,25.0469,VALID,336,VALID,0.0121094,
2009-04-17, 01:48:04,VALID,1001.99,VALID,0,VALID,91.7297,VALID,0.100563,VALID,25.1053,VALID,336,VALID,0.0617188,
2009-04-17, 01:49:04,VALID,1001.97,VALID,0,VALID,91.4855,VALID,0,VALID,25.1442,VALID,336,VALID,0,
2009-04-17, 01:50:04,VALID,1001.95,VALID,0,VALID,91.2719,VALID,0,VALID,25.1423,VALID,348,VALID,0.469922,
2009-04-17, 01:51:04,VALID,1001.94,VALID,0,VALID,90.7913,VALID,0,VALID,25.2611,VALID,351,VALID,1.11367,
2009-04-17, 01:52:04,VALID,1001.95,VALID,0,VALID,90.3565,VALID,0,VALID,25.3584,VALID,344,VALID,0.354297,
2009-04-17, 01:53:04,VALID,1001.96,VALID,0,VALID,89.9979,VALID,0,VALID,25.3974,VALID,335,VALID,0.225,
2009-04-17, 01:54:04,VALID,1001.94,VALID,0,VALID,89.6851,VALID,0,VALID,25.4169,VALID,346,VALID,0.186328,
2009-04-17, 01:55:04,VALID,1001.92,VALID,0,VALID,89.4791,VALID,0,VALID,25.4363,VALID,346,VALID,0.19375,
2009-04-17, 01:56:04,VALID,1001.9,VALID,0,VALID,89.2808,VALID,0,VALID,25.4344,VALID,350,VALID,0.614844,
2009-04-17, 01:57:04,VALID,1001.88,VALID,0,VALID,89.0901,VALID,0,VALID,25.4753,VALID,341,VALID,0.342578,
2009-04-17, 01:58:04,VALID,1001.87,VALID,0,VALID,89.0138,VALID,0,VALID,25.4948,VALID,316,VALID,0.0625,
2009-04-17, 01:59:04,VALID,1001.86,VALID,0,VALID,88.9299,VALID,0,VALID,25.4734,VALID,316,VALID,0,
2009-04-17, 02:00:04,VALID,1001.83,VALID,0,VALID,88.8765,VALID,0,VALID,25.4753,VALID,318,VALID,0.458203,
2009-04-17, 02:01:04,VALID,1001.82,VALID,0,VALID,88.9375,VALID,0,VALID,25.4363,VALID,348,VALID,0.729688,
2009-04-17, 02:02:04,VALID,1001.83,VALID,0,VALID,88.9756,VALID,0,VALID,25.4363,VALID,356,VALID,0.965625,
2009-04-17, 02:03:04,VALID,1001.85,VALID,0,VALID,89.0748,VALID,0,VALID,25.3955,VALID,353,VALID,0.748438,
2009-04-17, 02:04:04,VALID,1001.86,VALID,0,VALID,89.113,VALID,0,VALID,25.4188,VALID,342,VALID,0.496875,
2009-04-17, 02:05:04,VALID,1001.9,VALID,0,VALID,89.2121,VALID,0,VALID,25.3779,VALID,306,VALID,0.374219,
2009-04-17, 02:06:04,VALID,1001.91,VALID,0,VALID,89.296,VALID,0,VALID,25.3584,VALID,306,VALID,0,
2009-04-17, 02:07:04,VALID,1001.94,VALID,0,VALID,89.3876,VALID,0,VALID,25.339,VALID,306,VALID,0.0898438,
2009-04-17, 02:08:04,VALID,1001.92,VALID,0,VALID,89.4715,VALID,0,VALID,25.3,VALID,307,VALID,0.363672,
2009-04-17, 02:09:04,VALID,1001.93,VALID,0,VALID,89.5402,VALID,0,VALID,25.2786,VALID,332,VALID,0.558594,
2009-04-17, 02:10:04,VALID,1001.91,VALID,0,VALID,89.6317,VALID,0,VALID,25.2592,VALID,6,VALID,0.978516,
2009-04-17, 02:11:04,VALID,1001.9,VALID,0,VALID,89.7538,VALID,0,VALID,25.2202,VALID,4,VALID,0.748828,
2009-04-17, 02:12:04,VALID,1001.88,VALID,0,VALID,89.8911,VALID,0,VALID,25.2027,VALID,4,VALID,0.704297,
2009-04-17, 02:13:04,VALID,1001.85,VALID,0,VALID,90.0513,VALID,0,VALID,25.1618,VALID,350,VALID,0.567187,
2009-04-17, 02:14:04,VALID,1001.83,VALID,0,VALID,90.1047,VALID,0,VALID,25.1442,VALID,351,VALID,0.798047,
2009-04-17, 02:15:04,VALID,1001.82,VALID,0,VALID,90.0894,VALID,0,VALID,25.1423,VALID,355,VALID,0.625391,
2009-04-17, 02:16:04,VALID,1001.79,VALID,0,VALID,90.0742,VALID,0,VALID,25.1248,VALID,355,VALID,0.569922,
2009-04-17, 02:17:04,VALID,1001.8,VALID,0,VALID,90.1123,VALID,0,VALID,25.0839,VALID,346,VALID,0.526172,
2009-04-17, 02:18:04,VALID,1001.8,VALID,0,VALID,90.1657,VALID,0,VALID,25.1248,VALID,346,VALID,0.280469,
2009-04-17, 02:19:04,VALID,1001.85,VALID,0,VALID,90.1123,VALID,0.100563,VALID,25.1053,VALID,347,VALID,0.441406,
2009-04-17, 02:20:04,VALID,1001.87,VALID,0,VALID,90.1734,VALID,0,VALID,25.045,VALID,347,VALID,0.459375,
2009-04-17, 02:21:04,VALID,1001.83,VALID,0,VALID,90.3031,VALID,0,VALID,25.0274,VALID,347,VALID,0.346484,
2009-04-17, 02:22:04,VALID,1001.85,VALID,0,VALID,90.4938,VALID,0.100563,VALID,24.9671,VALID,347,VALID,0.246094,
2009-04-17, 02:23:04,VALID,1001.85,VALID,0,VALID,90.5777,VALID,0,VALID,24.9866,VALID,348,VALID,0.439844,
2009-04-17, 02:24:04,VALID,1001.84,VALID,0,VALID,90.5472,VALID,0.100563,VALID,25.0274,VALID,348,VALID,0.335547,
2009-04-17, 02:25:04,VALID,1001.82,VALID,0,VALID,90.5472,VALID,0,VALID,24.9866,VALID,348,VALID,0.325391,
2009-04-17, 02:26:04,VALID,1001.81,VALID,0,VALID,90.6311,VALID,0.100563,VALID,24.9885,VALID,348,VALID,0.374219,
2009-04-17, 02:27:04,VALID,1001.82,VALID,0,VALID,90.7608,VALID,0,VALID,24.9106,VALID,348,VALID,0.399609,
2009-04-17, 02:28:04,VALID,1001.82,VALID,0,VALID,90.9286,VALID,0,VALID,24.9106,VALID,348,VALID,0.333984,
2009-04-17, 02:29:04,VALID,1001.82,VALID,0,VALID,91.0354,VALID,0,VALID,24.8892,VALID,347,VALID,0.00195313,
2009-04-17, 02:30:04,VALID,1001.82,VALID,0,VALID,91.0812,VALID,0,VALID,24.8911,VALID,347,VALID,0,
2009-04-17, 02:31:04,VALID,1001.82,VALID,0,VALID,91.1499,VALID,0.100563,VALID,24.8697,VALID,347,VALID,0.0648438,
2009-04-17, 02:32:04,VALID,1001.82,VALID,0,VALID,91.2567,VALID,0,VALID,24.8484,VALID,347,VALID,0,
2009-04-17, 02:33:04,VALID,1001.81,VALID,0,VALID,91.333,VALID,0,VALID,24.9106,VALID,347,VALID,0.0285156,
2009-04-17, 02:34:04,VALID,1001.82,VALID,0,VALID,91.3177,VALID,0,VALID,24.9495,VALID,351,VALID,0.617578,
2009-04-17, 02:35:04,VALID,1001.8,VALID,0,VALID,91.1422,VALID,0.100563,VALID,24.9671,VALID,344,VALID,0.687109,
2009-04-17, 02:36:04,VALID,1001.82,VALID,0,VALID,91.0888,VALID,0,VALID,25.0644,VALID,346,VALID,0.444531,
2009-04-17, 02:37:04,VALID,1001.8,VALID,0,VALID,90.9057,VALID,0,VALID,25.0858,VALID,346,VALID,0.354297,
2009-04-17, 02:38:04,VALID,1001.85,VALID,0,VALID,90.8218,VALID,0,VALID,25.0839,VALID,346,VALID,0,
2009-04-17, 02:39:04,VALID,1001.87,VALID,0,VALID,90.7379,VALID,0,VALID,25.1248,VALID,346,VALID,0,
2009-04-17, 02:40:04,VALID,1001.86,VALID,0,VALID,90.5624,VALID,0,VALID,25.1229,VALID,346,VALID,0.140234,
2009-04-17, 02:41:04,VALID,1001.84,VALID,0,VALID,90.5396,VALID,0,VALID,25.1034,VALID,346,VALID,0,
2009-04-17, 02:42:04,VALID,1001.87,VALID,0,VALID,90.6082,VALID,0,VALID,25.1053,VALID,346,VALID,0,
2009-04-17, 02:43:04,VALID,1001.86,VALID,0,VALID,90.6616,VALID,0,VALID,25.0644,VALID,346,VALID,0,
2009-04-17, 02:44:04,VALID,1001.87,VALID,0,VALID,90.776,VALID,0,VALID,25.045,VALID,346,VALID,0.0992187,
2009-04-17, 02:45:04,VALID,1001.86,VALID,0,VALID,91.0049,VALID,0,VALID,25.0858,VALID,346,VALID,0.283594,
2009-04-17, 02:46:04,VALID,1001.8,VALID,0,VALID,91.0965,VALID,0,VALID,25.0877,VALID,346,VALID,0.180078,
2009-04-17, 02:47:04,VALID,1001.79,VALID,0,VALID,91.1956,VALID,0,VALID,25.0663,VALID,346,VALID,0,
2009-04-17, 02:48:04,VALID,1001.76,VALID,0,VALID,91.249,VALID,0.100563,VALID,25.0663,VALID,346,VALID,0.0984375,
2009-04-17, 02:49:04,VALID,1001.77,VALID,0,VALID,91.2567,VALID,0,VALID,25.0663,VALID,346,VALID,0.133594,
2009-04-17, 02:50:04,VALID,1001.76,VALID,0,VALID,91.3253,VALID,0,VALID,25.0663,VALID,346,VALID,0.273828,
2009-04-17, 02:51:04,VALID,1001.76,VALID,0,VALID,91.4245,VALID,0,VALID,25.0663,VALID,346,VALID,0.025,
2009-04-17, 02:52:04,VALID,1001.74,VALID,0,VALID,91.4932,VALID,0,VALID,25.0469,VALID,346,VALID,0,
2009-04-17, 02:53:04,VALID,1001.74,VALID,0,VALID,91.5084,VALID,0,VALID,25.0469,VALID,346,VALID,0,
2009-04-17, 02:54:04,VALID,1001.77,VALID,0,VALID,91.5847,VALID,0,VALID,25.0469,VALID,346,VALID,0.0371094,
2009-04-17, 02:55:04,VALID,1001.77,VALID,0,VALID,91.5618,VALID,0,VALID,25.0255,VALID,346,VALID,0.174219,
2009-04-17, 02:56:04,VALID,1001.77,VALID,0,VALID,91.5618,VALID,0,VALID,25.0255,VALID,346,VALID,0,
2009-04-17, 02:57:04,VALID,1001.77,VALID,0,VALID,91.5923,VALID,0,VALID,25.0663,VALID,346,VALID,0.147656,
2009-04-17, 02:58:04,VALID,1001.74,VALID,0,VALID,91.6381,VALID,0,VALID,25.0274,VALID,346,VALID,0.444922,
2009-04-17, 02:59:04,VALID,1001.74,VALID,0,VALID,91.6991,VALID,0,VALID,25.0274,VALID,346,VALID,0.510156,
2009-04-17, 03:00:04,VALID,1001.76,VALID,0,VALID,91.7983,VALID,0,VALID,25.0079,VALID,346,VALID,0.394531,
2009-04-17, 03:01:04,VALID,1001.7,VALID,0,VALID,91.8441,VALID,0,VALID,24.9671,VALID,346,VALID,0.446875,
2009-04-17, 03:02:04,VALID,1001.71,VALID,0,VALID,92.0272,VALID,0,VALID,24.969,VALID,346,VALID,0.130469,
2009-04-17, 03:03:04,VALID,1001.72,VALID,0,VALID,92.1645,VALID,0,VALID,24.9671,VALID,346,VALID,0.00195313,
2009-04-17, 03:04:04,VALID,1001.68,VALID,0,VALID,92.1721,VALID,0,VALID,24.9476,VALID,346,VALID,0.353125,
2009-04-17, 03:05:04,VALID,1001.7,VALID,0,VALID,92.1645,VALID,0,VALID,24.9495,VALID,346,VALID,0.173047,
2009-04-17, 03:06:04,VALID,1001.73,VALID,0,VALID,92.1721,VALID,0,VALID,24.969,VALID,346,VALID,0.420312,
2009-04-17, 03:07:04,VALID,1001.71,VALID,0,VALID,92.1416,VALID,0,VALID,24.9885,VALID,346,VALID,0.462109,
2009-04-17, 03:08:04,VALID,1001.75,VALID,0,VALID,92.1111,VALID,0,VALID,24.9885,VALID,346,VALID,0.220703,
2009-04-17, 03:09:04,VALID,1001.77,VALID,0,VALID,92.1187,VALID,0,VALID,25.0079,VALID,346,VALID,0.159766,
2009-04-17, 03:10:04,VALID,1001.77,VALID,0,VALID,92.134,VALID,0,VALID,25.0079,VALID,346,VALID,0.166406,
2009-04-17, 03:11:04,VALID,1001.79,VALID,0,VALID,92.134,VALID,0,VALID,24.9671,VALID,346,VALID,0,
2009-04-17, 03:12:04,VALID,1001.79,VALID,0,VALID,92.1645,VALID,0,VALID,24.9885,VALID,346,VALID,0,
2009-04-17, 03:13:04,VALID,1001.8,VALID,0,VALID,92.2179,VALID,0,VALID,24.9671,VALID,346,VALID,0.475781,
2009-04-17, 03:14:04,VALID,1001.8,VALID,0,VALID,92.2484,VALID,0,VALID,24.969,VALID,346,VALID,0.384375,
2009-04-17, 03:15:04,VALID,1001.82,VALID,0,VALID,92.3629,VALID,0,VALID,24.9495,VALID,346,VALID,0.139844,
2009-04-17, 03:16:04,VALID,1001.8,VALID,0,VALID,92.401,VALID,0,VALID,24.9495,VALID,346,VALID,0.323047,
2009-04-17, 03:17:04,VALID,1001.82,VALID,0,VALID,92.4315,VALID,0,VALID,24.9495,VALID,346,VALID,0.253906,
2009-04-17, 03:18:04,VALID,1001.85,VALID,0,VALID,92.4849,VALID,0,VALID,24.9476,VALID,346,VALID,0.188672,
2009-04-17, 03:19:04,VALID,1001.83,VALID,0,VALID,92.5078,VALID,0,VALID,24.969,VALID,346,VALID,0,
2009-04-17, 03:20:04,VALID,1001.81,VALID,0,VALID,92.4925,VALID,0,VALID,24.9495,VALID,346,VALID,0,
2009-04-17, 03:21:04,VALID,1001.81,VALID,0,VALID,92.5154,VALID,0,VALID,24.9495,VALID,346,VALID,0,
2009-04-17, 03:22:04,VALID,1001.8,VALID,0,VALID,92.5383,VALID,0,VALID,24.9476,VALID,346,VALID,0,
2009-04-17, 03:23:04,VALID,1001.8,VALID,0,VALID,92.5841,VALID,0,VALID,24.9495,VALID,346,VALID,0,
2009-04-17, 03:24:04,VALID,1001.78,VALID,0,VALID,92.5688,VALID,0.100563,VALID,24.9087,VALID,346,VALID,0,
2009-04-17, 03:25:04,VALID,1001.8,VALID,0,VALID,92.6222,VALID,0,VALID,24.9282,VALID,346,VALID,0,
2009-04-17, 03:26:04,VALID,1001.81,VALID,0,VALID,92.607,VALID,0,VALID,24.93,VALID,346,VALID,0,
2009-04-17, 03:27:04,VALID,1001.82,VALID,0,VALID,92.6299,VALID,0,VALID,24.93,VALID,346,VALID,0.337109,
2009-04-17, 03:28:04,VALID,1001.78,VALID,0,VALID,92.5917,VALID,0,VALID,24.8911,VALID,346,VALID,0,
2009-04-17, 03:29:04,VALID,1001.81,VALID,0,VALID,92.6528,VALID,0,VALID,24.8503,VALID,346,VALID,0.253125,
2009-04-17, 03:30:04,VALID,1001.8,VALID,0,VALID,92.7062,VALID,0,VALID,24.8522,VALID,346,VALID,0.3625,
2009-04-17, 03:31:04,VALID,1001.8,VALID,0,VALID,92.7519,VALID,0,VALID,24.8113,VALID,346,VALID,0.235547,
2009-04-17, 03:32:04,VALID,1001.81,VALID,0,VALID,92.8053,VALID,0,VALID,24.8132,VALID,346,VALID,0.388672,
2009-04-17, 03:33:04,VALID,1001.8,VALID,0,VALID,92.8969,VALID,0,VALID,24.7724,VALID,346,VALID,0.271484,
2009-04-17, 03:34:04,VALID,1001.81,VALID,0,VALID,92.8969,VALID,0,VALID,24.7548,VALID,346,VALID,0.400391,
2009-04-17, 03:35:04,VALID,1001.82,VALID,0,VALID,92.9884,VALID,0,VALID,24.714,VALID,346,VALID,0.239453,
2009-04-17, 03:36:04,VALID,1001.85,VALID,0,VALID,93.0418,VALID,0,VALID,24.7159,VALID,346,VALID,0,
2009-04-17, 03:37:04,VALID,1001.85,VALID,0,VALID,93.141,VALID,0,VALID,24.7159,VALID,346,VALID,0,
2009-04-17, 03:38:04,VALID,1001.85,VALID,0,VALID,93.2859,VALID,0,VALID,24.714,VALID,346,VALID,0,
2009-04-17, 03:39:04,VALID,1001.85,VALID,0,VALID,93.3775,VALID,0,VALID,24.7548,VALID,346,VALID,0,
2009-04-17, 03:40:04,VALID,1001.88,VALID,0,VALID,93.4233,VALID,0,VALID,24.7335,VALID,346,VALID,0,
2009-04-17, 03:41:04,VALID,1001.88,VALID,0,VALID,93.4462,VALID,0,VALID,24.7743,VALID,346,VALID,0,
2009-04-17, 03:42:04,VALID,1001.88,VALID,0,VALID,93.4843,VALID,0,VALID,24.7529,VALID,346,VALID,0,
2009-04-17, 03:43:04,VALID,1001.84,VALID,0,VALID,93.4309,VALID,0,VALID,24.7353,VALID,346,VALID,0,
2009-04-17, 03:44:04,VALID,1001.86,VALID,0,VALID,93.4538,VALID,0,VALID,24.7353,VALID,346,VALID,0,
2009-04-17, 03:45:04,VALID,1001.86,VALID,0,VALID,93.4996,VALID,0,VALID,24.7335,VALID,346,VALID,0,
2009-04-17, 03:46:04,VALID,1001.88,VALID,0,VALID,93.5453,VALID,0,VALID,24.7548,VALID,345,VALID,0.440234,
2009-04-17, 03:47:04,VALID,1001.9,VALID,0,VALID,93.5682,VALID,0,VALID,24.7743,VALID,360,VALID,0.296875,